Other Public Products
Issued by NWS Grand Forks, ND

Home | Current Version | Previous Version | Text Only | Print | Product List | Glossary Off
Versions: 1 2 3 4 5 6 7 8 9 10 11 12 13 14 15 16 17 18 19 20 21 22 23 24 25 26 27 28 29 30 31 32 33 34 35 36 37 38 39 40 41 42 43 44 45 46 47 48 49 50

000
FPUS83 KFGF 211810
OPUFGF
PRAIRIE TO PINES WEATHER ROUNDUP
NATIONAL WEATHER SERVICE EASTERN NORTH DAKOTA/GRAND FORKS ND
100 PM CDT MON AUG 21 2017

 **SATELLITE DATA USED TO AUGMENT SKY COVER AT AUTOMATED STATIONS**
 *****  WEATHER ACROSS EASTERN NORTH DAKOTA  *****

CITY           SKY/WX    TMP DP  RH WIND       PRES   REMARKS
GRAND FORKS    CLOUDY    71  55  56 CALM      29.92S
6HR MIN TEMP:  57; 6HR MAX TEMP:  72;

GRAND FORKS AF CLOUDY    69  55  59 W6        29.93R
GRAND CITY NWS NOT AVBL
BUXTON         NOT AVBL
DEVILS LAKE    LGT RAIN  63  56  78 CALM      29.93F
6HR MIN TEMP:  57; 6HR MAX TEMP:  71; 6HR PCP: TRACE;

FARGO          FAIR      69  59  70 S7        29.90F
6HR MIN TEMP:  61; 6HR MAX TEMP:  70; 6HR PCP:  0.01;

WAHPETON ARPT  FAIR      64  57  77 S6        29.91F
$$

 *****  WEATHER ACROSS CENTRAL AND WESTERN NORTH DAKOTA  *****

CITY           SKY/WX    TMP DP  RH WIND       PRES   REMARKS
JAMESTOWN      FAIR      67  56  67 W5        29.91F
6HR MIN TEMP:  57; 6HR MAX TEMP:  69; 6HR PCP: TRACE;

BISMARCK       FAIR      70  57  63 W8        29.97F
6HR MIN TEMP:  57; 6HR MAX TEMP:  73;

MINOT          FAIR      71  45  39 NW26G33   29.96R
6HR MIN TEMP:  55; 6HR MAX TEMP:  73;

MINOT AFB      FAIR      70  46  41 NW20G29   29.95R
6HR MIN TEMP:  54; 6HR MAX TEMP:  73;

GARRISON         N/A     70  44  39 N22G30    29.97R
6HR MIN TEMP:  57; 6HR MAX TEMP:  74; 6HR PCP:  0.01;

WILLISTON      FAIR      68  40  35 N17       30.09S
6HR MIN TEMP:  54; 6HR MAX TEMP:  73;

DICKINSON      FAIR      68  41  37 N14       30.06R
6HR MIN TEMP:  49; 6HR MAX TEMP:  73;

HETTINGER      FAIR      70  38  31 N16       30.08R
6HR MIN TEMP:  46; 6HR MAX TEMP:  75;

$$

 *****  OTHER OBSERVATIONS NORTHEAST NORTH DAKOTA  *****

CITY           SKY/WX    TMP DP  RH WIND       PRES   REMARKS
WALHALLA       FAIR      61  61 100 E6        29.92F
LANGDON        MOCLDY    61  59  94 S3        29.95F
CAVALIER       DRIZZLE   61  57  88 SE5       29.91F
GRAFTON        DRIZZLE   63  59  88 CALM      29.95F
CANDO          FAIR      63  63 100 S7        29.94F
FORT TOTTEN      N/A     64  55  72 S6        29.95S
ROLLA          MOCLDY    64  55  72 SW9       29.95F
RUGBY          FAIR      66  55  68 W7G14     29.93S
 ***** THE ABOVE OBSERVATIONS ARE NON NWS ARE NOT QUALITY
        CONTROLLED AND MAY MIS-REPORT RAIN FOR SNOW...
$$

 *****  OTHER OBSERVATIONS SOUTHEAST NORTH DAKOTA *****

CITY           SKY/WX    TMP DP  RH WIND       PRES   REMARKS
COOPERSTOWN    FAIR      68  57  68 S6        29.93S
VALLEY CITY      N/A     66  61  82 MISG      29.93S
OAKES          NOT AVBL
GWINNER        CLEAR     66  63  88 CALM      29.91F
SHEYENNE NWR     N/A     67  60  78 S8        29.95S
BUFFALO        NOT AVBL
WYNDMERE       NOT AVBL
 ***** THE ABOVE OBSERVATIONS ARE NON NWS ARE NOT QUALITY
       CONTROLLED AND MAY MIS-REPORT RAIN FOR SNOW...
$$

  *****  WEATHER ACROSS NORTHERN MINNESOTA  *****

CITY           SKY/WX    TMP DP  RH WIND       PRES   REMARKS
FLAG ISLAND    FAIR      63  52  67 CALM      29.95F
WARROAD        FAIR      63  57  82 CALM      29.96F
ROSEAU         PTSUNNY   63  57  82 NE5       29.94F
HALLOCK        LGT RAIN  64  57  77 CALM      29.94F
THF RVR FALLS  PTSUNNY   66  52  60 S7        29.95S
6HR MIN TEMP:  53; 6HR MAX TEMP:  68; 6HR PCP: TRACE;

HALSTAD        NOT AVBL
FOSSTON        FAIR      64  52  63 S8        29.95S
BAUDETTE       CLOUDY    65  56  72 NE5       29.95F
6HR MIN TEMP:  49; 6HR MAX TEMP:  66; 6HR PCP: TRACE;

WASKISH        CLOUDY    66  55  68 CALM      29.95F
CROOKSTON      FAIR      70  54  56 SW10      29.93S
$$
  *****  WEATHER ACROSS CENTRAL AND WEST MINNESOTA  *****

CITY           SKY/WX    TMP DP  RH WIND       PRES   REMARKS
BEMIDJI        CLOUDY    64  52  63 SE5       29.94F
PARK RAPIDS    FAIR      67  55  65 S10       29.93F
6HR MIN TEMP:  56; 6HR MAX TEMP:  68; 6HR PCP:  0.01;

WADENA         FAIR      66  57  72 S6        29.93F
DETROIT LAKES  FAIR      66  57  72 S8        29.94F
MOORHEAD       FAIR      68  57  68 S10       29.91F
FERGUS FALLS   FAIR      68  59  73 SE6       29.90F
ELBOW LAKE     FAIR      66  60  79 E9        29.90F
MORRIS MN      PTSUNNY   66  63  88 SE9       29.87F
STAPLES        FAIR      64  55  72 SE6       29.93F
WHEATON        FAIR      64  59  82 S5        29.92S
$$
  *****  WEATHER ELSEWHERE ACROSS MINNESOTA  *****

CITY           SKY/WX    TMP DP  RH WIND       PRES   REMARKS
DULUTH         PTSUNNY   65  58  78 N3        30.00F
6HR MIN TEMP:  54; 6HR MAX TEMP:  69; 6HR PCP: TRACE;

INTRNTL FALLS  FAIR      67  54  63 SE3       29.97F
6HR MIN TEMP:  45; 6HR MAX TEMP:  70;

ELY            FAIR      66  54  63 CALM      30.02F
CLOQUET        FAIR      64  55  72 CALM      29.99F
BRAINERD       FAIR      66  59  78 SE7       29.94F
6HR MIN TEMP:  57; 6HR MAX TEMP:  66; 6HR PCP: TRACE;

HIBBING        LGT RAIN  60  58  92 SE7       29.99F
6HR MIN TEMP:  44; 6HR MAX TEMP:  64; 6HR PCP: TRACE;

ALEXANDRIA     FAIR      66  59  78 SE9       29.93F
6HR MIN TEMP:  60; 6HR MAX TEMP:  67; 6HR PCP:  0.01;

SAINT CLOUD    LGT RAIN  64  63  96 E8        29.90F
6HR MIN TEMP:  58; 6HR MAX TEMP:  70; 6HR PCP:  0.09;

MINNEAPOLIS    PTSUNNY   78  62  57 W7        29.98R
6HR MIN TEMP:  68; 6HR MAX TEMP:  80;

$$

  *****  WEATHER ACROSS SOUTH DAKOTA  *****

CITY           SKY/WX    TMP DP  RH WIND       PRES   REMARKS
SIOUX FALLS    TSTM      69  69 100 NE9       29.93F
6HR MIN TEMP:  65; 6HR MAX TEMP:  74; 6HR PCP:  0.61;

BROOKINGS      PTSUNNY   67  65  93 W8        29.98F
WATERTOWN      FAIR      65  64  97 CALM      29.91F
6HR MIN TEMP:  61; 6HR MAX TEMP:  65; 6HR PCP:  1.00;

HURON          PTSUNNY   67  63  87 SE24G35   29.80F
6HR MIN TEMP:  61; 6HR MAX TEMP:  68; 6HR PCP:  0.14;

SISSETON         N/A     65  62  90 S6        29.91R
ABERDEEN       FAIR      62  59  90 CALM      29.94F
6HR MIN TEMP:  57; 6HR MAX TEMP:  66; 6HR PCP:  0.21;

MITCHELL       TSTM      68  65  90 VRB7      30.00S
PIERRE         FAIR      63  61  93 NW8       29.96F
6HR MIN TEMP:  60; 6HR MAX TEMP:  64; 6HR PCP:  1.35;

MOBRIDGE       FAIR      69  62  78 W9        29.96F
RAPID CITY     FAIR      69  49  48 N16       30.10R
6HR MIN TEMP:  57; 6HR MAX TEMP:  75;

$$

  *****  SOME WEATHER IN NEARBY STATES *****

CITY           SKY/WX    TMP DP  RH WIND       PRES   REMARKS
GLASGOW MT     PTSUNNY   70  35  27 NW12      30.14F
6HR MIN TEMP:  53; 6HR MAX TEMP:  72;

GREAT FALLS MT FAIR      65  33  30 CALM      30.20F
6HR MIN TEMP:  46; 6HR MAX TEMP:  68;

CHEYENNE WY    FAIR      70  34  26 N16G24    30.22R
6HR MIN TEMP:  54; 6HR MAX TEMP:  77;

SCOTTSBLUFF NE FAIR      75  58  55 N10       30.09R
6HR MIN TEMP:  61; 6HR MAX TEMP:  82;

OMAHA NE       PTSUNNY   78  67  68 SE17      29.96F
6HR MIN TEMP:  68; 6HR MAX TEMP:  80; 6HR PCP:  0.74;

DES MOINES IA  CLOUDY    73  67  81 S8        29.98F
6HR MIN TEMP:  67; 6HR MAX TEMP:  74; 6HR PCP:  0.32;

DAVENPORT IA   FAIR      75  66  73 SW7       30.05F
6HR MIN TEMP:  67; 6HR MAX TEMP:  76; 6HR PCP:  0.11;

CHICAGO IL     CLOUDY    81  71  71 SW8       30.06S
6HR MIN TEMP:  71; 6HR MAX TEMP:  83;

EAU CLAIRE WI  FAIR      75  68  78 SW5       29.98F
6HR MIN TEMP:  66; 6HR MAX TEMP:  76; 6HR PCP:  0.01;

LA CROSSE WI   FAIR      81  65  58 S10       29.97R
6HR MIN TEMP:  70; 6HR MAX TEMP:  84;

$$

  *****  SOME NATIONAL WEATHER *****

CITY           SKY/WX    TMP DP  RH WIND       PRES   REMARKS
LA GUARDIA NY  PTSUNNY   87  61  41 SW15      30.14F
6HR MIN TEMP:  77; 6HR MAX TEMP:  88;



USA.gov is the U.S. government's official web portal to all federal, state and local government web resources and services.